Regional Weather Roundup
Issued by NWS

Home | Current Version | Previous Version | Graphics & Text | Print | Product List | Glossary On
Versions: 1 2 3 4 5 6 7 8 9 10 11 12 13 14 15 16 17 18 19 20 21 22 23 24 25 26 27
000
ASUS45 KBOU 160406
RWRCO

WEATHER ROUNDUP FOR COLORADO
NATIONAL WEATHER SERVICE DENVER/BOULDER CO
1000 PM MDT TUE APR 15 2014

NOTE: "FAIR" INDICATES FEW OR NO CLOUDS BELOW 12000 FEET WITH NO
SIGNIFICANT WEATHER AND/OR OBSTRUCTIONS TO VISIBILITY.

COZ001>005-013-030-031-160500-
...NORTHWEST COLORADO...

CITY           SKY/WX    TMP DP  RH WIND       PRES   REMARKS
CRAIG          CLOUDY    48  17  29 W14G21    29.78S
HAYDEN         CLOUDY    46  19  34 W6        29.81S
MEEKER         CLOUDY    50  14  23 SW16G29   29.81R
MOUNT WERNER   CLOUDY    34   7  32 W17G28    29.90F WCI  23
STEAMBOAT SPGS CLOUDY    47  10  22 CALM      29.80S
WALDEN         MOCLDY    36  21  55 W17       29.82F
$$

COZ006>008-011-160500-
...WEST CENTRAL VALLEYS...

CITY           SKY/WX    TMP DP  RH WIND       PRES   REMARKS
GRAND JUNCTION CLOUDY    49  29  46 NE8       29.82S
MONTROSE       MOCLDY    52  13  21 SE8       29.90S
EAGLE          CLOUDY    43  25  49 E5        29.87F
RIFLE          CLOUDY    52  21  29 W8        29.83S
DELTA          MOCLDY    52  23  32 CALM      29.86S
NUCLA            N/A     48  10  21 E5        29.94S
$$

COZ017>023-064>068-160500-
...SOUTHWEST COLORADO...

CITY           SKY/WX    TMP DP  RH WIND       PRES   REMARKS
DURANGO        PTCLDY    41   2  19 N6        29.96R
CORTEZ         CLEAR     38  15  39 NE7       29.94R
PAGOSA SPRINGS PTCLDY    37   3  24 N5        29.99S
TELLURIDE      NOT AVBL
WOLF CREEK PAS PTCLDY    27   0  31 SW24G31   30.09S WCI  12
$$

COZ009-010-012-014-032>034-037-058>063-160500-
...CENTRAL COLORADO...

CITY           SKY/WX    TMP DP  RH WIND       PRES   REMARKS
ASPEN          CLOUDY    42  17  36 S6        29.90S
BUENA VISTA    PTCLDY    43   8  23 N5        29.89F
COPPER MTN     NOT AVBL
BERTHOUD PASS  FAIR      21  12  68 W49G64    29.88F WCI  -1
COTTONWOOD PAS PTCLDY    41   1  19 NW15G32   29.91F
GUNNISON       PTCLDY    37  12  35 N5        29.98S
KREMMLING      CLOUDY    45  12  26 SW14G23   29.85S
LEADVILLE      MOCLDY    30  10  43 NE5       29.95F WCI  25
MONARCH PASS   PTCLDY    27   7  43 W32       30.13S WCI  10
SALIDA         PTCLDY    47   6  18 CALM      29.95F
SUNLIGHT       CLOUDY    32  21  64 CALM      29.97F
WILKERSON PASS CLEAR     28   9  43 SW15G31   29.92F WCI  17
$$

COZ069>075-160500-
...SAN LUIS VALLEY/SANGRE DE CRISTO MOUNTAINS...

CITY           SKY/WX    TMP DP  RH WIND       PRES   REMARKS
ALAMOSA        MOCLDY    41  13  31 SW13      29.93R
LA VETA PASS   PTCLDY    34   5  29 SW13G26   29.95S WCI  25
SAGUACHE       PTCLDY    39   9  28 W8        29.93S
$$

COZ035-036-038>040-160500-
...NORTHERN COLORADO FRONT RANGE...

CITY           SKY/WX    TMP DP  RH WIND       PRES   REMARKS
DENVER INTL AP MOCLDY    58   9  14 W18G30    29.70F
DMNS CITY PARK   N/A     55   8  15 S3        29.71S
AURORA         MOCLDY    52  14  22 NW9       29.72F
FRONT RANGE AP NOT AVBL
ERIE MUNI ARPT MOCLDY    58  10  14 W9G16     29.71S
BOULDER MUN AP MOCLDY    55  14  19 S5        29.70S
CENTENNIAL     MOCLDY    46  18  32 SW10      29.73F
BROOMFIELD     PTCLDY    55  10  16 SW3       29.73F
FORT COLLINS   MOCLDY    54  19  26 W12       29.71S
LONGMONT       MOCLDY    59  14  17 W9        29.71S
$$

COZ041-046-047-076>085-087-088-160500-
...PIKES PEAK/PALMER DIVIDE AND SOUTHERN FOOTHILLS...

CITY           SKY/WX    TMP DP  RH WIND       PRES   REMARKS
COLO. SPRINGS  PTCLDY    55   4  12 NW9       29.78S
A. F. ACADEMY  CLEAR     48   8  20 N6        29.79S
ELLICOTT       NOT AVBL
FALCON         CLEAR     46   9  22 W12       29.81F
FORT CARSON    PTCLDY    52  11  19 S14       29.76F
LIMON          CLEAR     38  26  62 E6        29.73S
MONUMENT HILL  PTCLDY    43  14  31 W13G18    29.78F
TRINIDAD       CLEAR     47  17  30 NW7       29.79R
$$

COZ042>045-048>051-090-091-160500-
...NORTHEAST COLORADO...

CITY           SKY/WX    TMP DP  RH WIND       PRES   REMARKS
GREELEY ARPT   CLOUDY    52  21  30 NW7       29.69S
AKRON          MOCLDY    48  30  49 S12       29.67F
BURLINGTON     CLEAR     42  25  50 S14       29.70F
WRAY           PTCLDY    49  25  38 S8        29.68F
STERLING       MOCLDY    46  37  71 W3        29.64F
HOLYOKE        PTCLDY    43  32  65 S10       29.67F
FORT MORGAN    MOCLDY    47  31  53 CALM      29.67F
$$

COZ086-089-092>099-160500-
...SOUTHEAST COLORADO...

CITY           SKY/WX    TMP DP  RH WIND       PRES   REMARKS
PUEBLO         MOCLDY    56  15  20 NW16      29.72F
LA JUNTA       MOCLDY    52  31  44 W13       29.70R
LAMAR          MOCLDY    55  25  31 S20       29.65S
SPRINGFIELD    NOT AVBL
$$



USA.gov is the U.S. government's official web portal to all federal, state and local government web resources and services.